Location: Villingen
(48.0639°N, 8.4609°E)
Time: 09:53:03
(UTC+02:00)

Envisat - Visible Passes

Search period start: 28 May 2018 00:00
Search period end: 07 June 2018 00:00
Orbit: 764 x 766 km, 98.2° (Epoch: 27 May)

Date Brightness Start Highest point End Pass type
(mag) Time Alt. Az. Time Alt. Az. Time Alt. Az.
30 May 5.6 22:02:30 10° SW 22:05:47 17° W 22:09:04 10° NW visible
02 Jun 5.4 21:50:42 10° SW 21:54:29 21° W 21:58:19 10° NW visible
04 Jun 5.8 22:18:17 10° WSW 22:20:24 12° W 22:22:32 10° WNW visible
